Weather History for Burley, ID

Change the Weather History Date:

Sunday, October 7, 2012

  Actual Average Record
Temperature  
Mean Temperature 44 °F 51 °F  
Max Temperature 65 °F 65 °F 85 °F (1979)
Min Temperature 23 °F 37 °F 21 °F (1974)
Degree Days  
Heating Degree Days 21 14  
Month to date heating degree days 106 93  
Since 1 July heating degree days 198 363  
Cooling Degree Days 0 0  
Month to date cooling degree days 0 0  
Year to date cooling degree days 546 365  
Moisture  
Dew Point 19 °F    
Average Humidity 52    
Maximum Humidity 88    
Minimum Humidity 15    
Precipitation  
Precipitation 0.00 in 0.02 in 0.50 in (1975)
Month to date precipitation 0.00 0.15  
Year to date precipitation 6.80 7.46  
Sea Level Pressure  
Sea Level Pressure 30.15 in    
Wind  
Wind Speed 2 mph (NE)    
Max Wind Speed 10 mph    
Max Gust Speed 13 mph    
Visibility 10 miles    
Events      
T = Trace of Precipitation, MM = Missing Value Source: NWS Daily Summary

Daily Weather History Graph

Daily Weather History Graph

Search for Another Location

Airport:

Trip Planner

Search our weather history database for the weather conditions in past years. The results will help you decide how hot, cold, wet, or windy it might be!

Date:

Astronomy

Oct. 07, 2012 Rise Set
Actual Time 7:39 AM MDT 7:05 PM MDT
Civil Twilight 7:11 AM MDT 7:33 PM MDT
Nautical Twilight 6:38 AM MDT 8:05 PM MDT
Astronomical Twilight 6:05 AM MDT 8:38 PM MDT
Moon No Moon Rise 2:24 PM MDT (10/7)
Length of Visible Light 12h 21m
Length of Day
11h 25m
Waning Gibbous, 55% of the Moon is Illuminated
Oct 7
Waning Gibbous
Oct 8
Last Quarter
Oct 15
New
Oct 21
First Quarter
Oct 29
Full

Hourly Weather History & Observations

Time (MDT) Temp. Windchill Dew Point Humidity Pressure Visibility Wind Dir Wind Speed Gust Speed Precip Events Conditions
12:53 AM 28.9 °F - 19.0 °F 67% 30.21 in 10.0 mi Calm Calm - N/A   Clear
1:53 AM 28.0 °F - 19.0 °F 69% 30.21 in 10.0 mi Calm Calm - N/A   Clear
2:53 AM 28.0 °F - 19.9 °F 72% 30.22 in 10.0 mi Calm Calm - N/A   Clear
3:53 AM 28.0 °F - 19.9 °F 72% 30.22 in 10.0 mi Calm Calm - N/A   Clear
4:53 AM 26.1 °F - 19.9 °F 78% 30.21 in 10.0 mi Calm Calm - N/A   Clear
5:53 AM 23.0 °F - 19.0 °F 85% 30.22 in 10.0 mi Calm Calm - N/A   Clear
6:53 AM 26.1 °F 19.4 °F 19.0 °F 75% 30.22 in 10.0 mi North 5.8 mph - N/A   Clear
7:53 AM 26.1 °F 21.9 °F 19.0 °F 75% 30.24 in 10.0 mi NNW 3.5 mph - N/A   Clear
8:53 AM 30.0 °F - 19.9 °F 66% 30.26 in 10.0 mi Calm Calm - N/A   Clear
9:53 AM 36.0 °F - 19.0 °F 50% 30.26 in 10.0 mi Calm Calm - N/A   Clear
10:53 AM 48.9 °F - 15.1 °F 26% 30.22 in 10.0 mi ENE 6.9 mph - N/A   Clear
11:53 AM 55.0 °F - 16.0 °F 22% 30.20 in 10.0 mi NE 8.1 mph - N/A   Clear
12:53 PM 60.1 °F - 19.0 °F 20% 30.16 in 10.0 mi ENE 6.9 mph - N/A   Clear
1:53 PM 61.0 °F - 18.0 °F 19% 30.13 in 10.0 mi NE 4.6 mph - N/A   Clear
2:53 PM 63.0 °F - 18.0 °F 18% 30.09 in 10.0 mi Variable 4.6 mph - N/A   Clear
3:53 PM 64.0 °F - 15.1 °F 15% 30.07 in 10.0 mi ESE 4.6 mph - N/A   Clear
4:53 PM 64.9 °F - 16.0 °F 15% 30.05 in 10.0 mi North 4.6 mph - N/A   Clear
5:53 PM 63.0 °F - 15.1 °F 16% 30.05 in 10.0 mi NNE 4.6 mph - N/A   Clear
6:53 PM 57.9 °F - 19.0 °F 22% 30.05 in 10.0 mi Calm Calm - N/A   Clear
7:53 PM 48.9 °F - 25.0 °F 39% 30.07 in 10.0 mi Calm Calm - N/A   Clear
8:53 PM 41.0 °F - 26.1 °F 55% 30.09 in 10.0 mi Calm Calm - N/A   Clear
9:53 PM 41.0 °F - 24.1 °F 51% 30.08 in 10.0 mi Calm Calm - N/A   Clear
10:53 PM 39.0 °F 36.8 °F 21.9 °F 50% 30.06 in 10.0 mi SW 3.5 mph - N/A   Clear
11:53 PM 36.0 °F - 19.9 °F 52% 30.04 in 10.0 mi Calm Calm - N/A   Clear